This is the latest recevied weather packets stored in our database for station/object KB2AHZ. If no packets are shown the sender has not sent any weather packets the latest 10 day(s).
| Time | Temp. | Humidity | Pressure | Rain* | Wind** | Luminosity | Snow |
|---|---|---|---|---|---|---|---|
| 1778076593 | 20° C | 73% | 1014 hPa | 0 mm | - | 192 W/m² | - |
| 1778076289 | 20° C | 72% | 1014 hPa | 0 mm | - | 273 W/m² | - |
| 1778075986 | 19.44° C | 73% | 1013.8 hPa | 0 mm | - | 260 W/m² | - |
| 1778075683 | 19.44° C | 75% | 1013.9 hPa | 0 mm | - | 154 W/m² | - |
| 1778075379 | 19.44° C | 74% | 1013.9 hPa | 0 mm | - | 159 W/m² | - |
| 1778075075 | 18.89° C | 76% | 1013.9 hPa | 0 mm | - | 137 W/m² | - |
| 1778074772 | 18.89° C | 76% | 1014 hPa | 0 mm | - | 158 W/m² | - |
| 1778074470 | 18.89° C | 75% | 1014 hPa | 0 mm | - | 126 W/m² | - |
| 1778074166 | 18.89° C | 76% | 1014.3 hPa | 0 mm | - | 132 W/m² | - |
| 1778073863 | 18.89° C | 77% | 1014 hPa | 0 mm | - | 179 W/m² | - |
| 1778073561 | 18.33° C | 78% | 1014 hPa | 0 mm | - | 160 W/m² | - |
| 1778073257 | 18.33° C | 79% | 1014.3 hPa | 0 mm | - | 104 W/m² | - |
| 1778072954 | 18.33° C | 79% | 1014.1 hPa | 0 mm | - | 133 W/m² | - |
| 1778072650 | 18.33° C | 79% | 1014 hPa | 0 mm | - | 129 W/m² | - |
| 1778072349 | 18.89° C | 76% | 1014 hPa | 0 mm | - | 96 W/m² | - |
| 1778072047 | 18.89° C | 76% | 1013.9 hPa | 0 mm | - | 146 W/m² | - |
| 1778071745 | 18.33° C | 76% | 1013.5 hPa | 0 mm | - | 128 W/m² | - |
| 1778071442 | 18.33° C | 77% | 1013.9 hPa | 0 mm | - | 100 W/m² | - |
| 1778071139 | 18.33° C | 77% | 1013.9 hPa | 0 mm | - | 79 W/m² | - |
| 1778070837 | 18.33° C | 77% | 1013.9 hPa | 0 mm | - | 92 W/m² | - |
| 1778070534 | 18.33° C | 78% | 1013.7 hPa | 0 mm | - | 91 W/m² | - |
| 1778070231 | 18.33° C | 78% | 1013.6 hPa | 0 mm | - | 102 W/m² | - |
| 1778069929 | 18.33° C | 78% | 1013.3 hPa | 0 mm | - | 86 W/m² | - |
| 1778069626 | 18.33° C | 78% | 1013.5 hPa | 0 mm | - | 65 W/m² | - |
| 1778069323 | 18.33° C | 78% | 1013.4 hPa | 0 mm | - | 71 W/m² | - |
* Rain latest hour (hover to see other rain measurements)
** Current wind speed in m/s (hover to see current wind gust speed)